Radiation Dose at Monitoring Post of Fukushima Daini Nuclear Power Station
Date,Time,MP-1(microSv/h),MP-2(microSv/h),MP-3(microSv/h),MP-4(microSv/h),MP-5(microSv/h),MP-6(microSv/h),MP-7(microSv/h),Wind Direction,Wind Velocity(m/s),Rain
2023/05/29,00:00,0.151,0.136,0.215,0.207,0.213,0.122,0.079,southwest,3.1,Yes
2023/05/29,00:10,0.153,0.138,0.218,0.207,0.215,0.123,0.081,south-southwest,3.3,Yes
2023/05/29,00:20,0.152,0.137,0.217,0.210,0.215,0.124,0.081,southwest,3.7,Yes
2023/05/29,00:30,0.151,0.137,0.217,0.207,0.215,0.123,0.081,southwest,3.7,Yes
2023/05/29,00:40,0.151,0.137,0.216,0.208,0.214,0.123,0.080,southwest,3.5,Yes
2023/05/29,00:50,0.150,0.136,0.217,0.205,0.213,0.123,0.080,southwest,4.1,Yes
2023/05/29,01:00,0.149,0.136,0.215,0.208,0.214,0.122,0.078,southwest,4.2,Yes
2023/05/29,01:10,0.149,0.135,0.216,0.204,0.211,0.121,0.077,southwest,4.7,Yes
2023/05/29,01:20,0.150,0.135,0.214,0.206,0.213,0.121,0.078,southwest,4.2,Yes
2023/05/29,01:30,-,-,-,-,-,-,-,-,-,-
2023/05/29,01:40,0.151,0.134,0.215,0.206,0.214,0.121,0.078,southwest,4.7,Yes
2023/05/29,01:50,0.149,0.134,0.214,0.203,0.211,0.121,0.078,southwest,4.5,Yes
2023/05/29,02:00,0.150,0.134,0.213,0.205,0.213,0.120,0.078,southwest,3.5,Yes
2023/05/29,02:10,0.149,0.135,0.214,0.203,0.211,0.121,0.078,southwest,3.5,Yes
2023/05/29,02:20,0.151,0.136,0.214,0.206,0.213,0.121,0.080,southwest,2.8,Yes
2023/05/29,02:30,0.151,0.138,0.218,0.206,0.214,0.124,0.081,south-southwest,2.6,Yes
2023/05/29,02:40,0.153,0.137,0.218,0.207,0.214,0.124,0.080,southwest,3.0,Yes
2023/05/29,02:50,0.152,0.139,0.219,0.208,0.215,0.125,0.082,southwest,2.0,Yes
2023/05/29,03:00,0.153,0.139,0.219,0.210,0.216,0.126,0.082,west-southwest,1.1,Yes
2023/05/29,03:10,0.152,0.138,0.217,0.207,0.216,0.126,0.083,-,CALM,Yes
2023/05/29,03:20,0.153,0.137,0.217,0.209,0.214,0.124,0.082,-,CALM,Yes
2023/05/29,03:30,0.151,0.137,0.215,0.207,0.216,0.123,0.081,-,CALM,Yes
2023/05/29,03:40,0.151,0.136,0.216,0.207,0.213,0.123,0.081,-,CALM,Yes
2023/05/29,03:50,0.152,0.137,0.216,0.206,0.215,0.123,0.081,northwest,1.3,Yes
2023/05/29,04:00,0.152,0.137,0.217,0.208,0.213,0.124,0.082,west,2.4,Yes
2023/05/29,04:10,0.152,0.138,0.217,0.207,0.216,0.124,0.082,west-northwest,2.4,Yes
2023/05/29,04:20,0.152,0.139,0.218,0.209,0.214,0.124,0.082,west-northwest,1.4,Yes
2023/05/29,04:30,0.153,0.139,0.218,0.208,0.217,0.126,0.084,west,1.7,Yes
2023/05/29,04:40,0.152,0.138,0.218,0.210,0.215,0.125,0.082,-,CALM,Yes
2023/05/29,04:50,0.152,0.138,0.217,0.206,0.215,0.124,0.082,southeast,0.7,Yes
2023/05/29,05:00,0.151,0.137,0.215,0.208,0.213,0.123,0.081,south-southeast,1.1,Yes
2023/05/29,05:10,0.152,0.136,0.214,0.205,0.214,0.122,0.081,southeast,0.8,Yes
2023/05/29,05:20,0.150,0.136,0.213,0.206,0.211,0.121,0.079,south-southwest,1.6,Yes
2023/05/29,05:30,0.150,0.135,0.215,0.204,0.213,0.122,0.079,south-southwest,2.6,No
2023/05/29,05:40,0.149,0.135,0.213,0.205,0.212,0.120,0.079,south-southwest,3.6,Yes
2023/05/29,05:50,0.151,0.134,0.213,0.204,0.211,0.120,0.078,south-southwest,3.6,Yes
2023/05/29,06:00,0.149,0.137,0.213,0.204,0.213,0.122,0.079,south-southwest,3.3,Yes
2023/05/29,06:10,0.149,0.135,0.213,0.205,0.212,0.121,0.079,south-southwest,3.1,Yes
2023/05/29,06:20,0.149,0.136,0.214,0.204,0.213,0.122,0.079,south-southwest,3.8,Yes
2023/05/29,06:30,0.151,0.136,0.215,0.205,0.212,0.122,0.080,southwest,3.7,Yes
2023/05/29,06:40,0.150,0.137,0.215,0.205,0.215,0.123,0.081,south-southwest,3.2,Yes
2023/05/29,06:50,0.150,0.137,0.215,0.206,0.214,0.123,0.081,south-southwest,3.5,Yes
2023/05/29,07:00,0.151,0.136,0.215,0.205,0.213,0.122,0.080,south-southwest,3.6,Yes
2023/05/29,07:10,0.149,0.136,0.214,0.205,0.214,0.122,0.080,south-southwest,3.5,Yes
2023/05/29,07:20,0.151,0.136,0.212,0.204,0.212,0.122,0.079,south-southwest,2.5,Yes
2023/05/29,07:30,0.149,0.135,0.212,0.204,0.213,0.122,0.079,southwest,2.2,Yes
2023/05/29,07:40,0.148,0.134,0.214,0.204,0.209,0.120,0.079,southwest,2.0,Yes
2023/05/29,07:50,0.149,0.134,0.210,0.202,0.212,0.120,0.078,southwest,2.4,Yes
2023/05/29,08:00,0.147,0.134,0.213,0.204,0.211,0.120,0.077,southwest,3.2,Yes
2023/05/29,08:10,0.149,0.133,0.211,0.202,0.209,0.120,0.078,southwest,3.1,Yes
2023/05/29,08:20,0.148,0.134,0.211,0.202,0.211,0.120,0.077,southwest,3.7,No
2023/05/29,08:30,0.148,0.132,0.212,0.203,0.212,0.119,0.077,south-southwest,2.3,Yes
2023/05/29,08:40,0.148,0.134,0.210,0.201,0.209,0.119,0.077,southwest,2.7,Yes
2023/05/29,08:50,0.148,0.133,0.211,0.202,0.211,0.119,0.077,southwest,2.9,Yes
2023/05/29,09:00,0.149,0.133,0.212,0.202,0.212,0.119,0.077,south-southwest,2.4,Yes
2023/05/29,09:10,0.148,0.134,0.211,0.202,0.209,0.121,0.077,south,2.0,Yes
2023/05/29,09:20,0.150,0.134,0.214,0.205,0.213,0.120,0.078,southeast,2.3,Yes
2023/05/29,09:30,0.150,0.136,0.213,0.204,0.212,0.121,0.080,south-southeast,1.5,Yes
2023/05/29,09:40,0.149,0.136,0.215,0.205,0.213,0.123,0.079,south-southeast,2.1,Yes
2023/05/29,09:50,0.151,0.137,0.214,0.207,0.214,0.123,0.080,south,1.8,Yes
2023/05/29,10:00,0.150,0.136,0.214,0.205,0.212,0.123,0.081,south-southeast,2.2,Yes
2023/05/29,10:10,0.153,0.136,0.215,0.207,0.215,0.124,0.082,south-southeast,2.1,Yes
2023/05/29,10:20,0.153,0.138,0.215,0.206,0.215,0.123,0.082,south-southeast,2.1,Yes
2023/05/29,10:30,0.152,0.138,0.216,0.207,0.213,0.125,0.083,south-southeast,2.8,Yes
2023/05/29,10:40,0.153,0.138,0.216,0.207,0.217,0.124,0.082,south-southeast,2.7,Yes
2023/05/29,10:50,0.152,0.137,0.214,0.205,0.213,0.124,0.081,south-southeast,2.0,Yes
2023/05/29,11:00,0.151,0.137,0.215,0.205,0.212,0.123,0.080,south-southeast,1.7,Yes
2023/05/29,11:10,0.151,0.136,0.214,0.205,0.214,0.122,0.080,southeast,2.2,Yes
2023/05/29,11:20,0.149,0.136,0.212,0.203,0.212,0.122,0.080,south-southeast,1.5,Yes
2023/05/29,11:30,0.149,0.135,0.215,0.205,0.210,0.121,0.078,southeast,1.4,Yes
2023/05/29,11:40,0.150,0.135,0.212,0.204,0.212,0.121,0.078,southeast,1.9,Yes
2023/05/29,11:50,0.148,0.133,0.210,0.202,0.210,0.121,0.078,southeast,1.5,Yes
2023/05/29,12:00,0.149,0.134,0.213,0.204,0.209,0.120,0.078,-,CALM,Yes
2023/05/29,12:10,0.150,0.134,0.212,0.203,0.212,0.120,0.078,east-southeast,1.0,Yes
2023/05/29,12:20,0.148,0.133,0.210,0.201,0.212,0.119,0.078,southeast,1.2,Yes
2023/05/29,12:30,0.147,0.133,0.211,0.203,0.209,0.120,0.078,southeast,1.4,Yes
2023/05/29,12:40,0.149,0.134,0.212,0.202,0.208,0.118,0.077,east-southeast,1.8,Yes
2023/05/29,12:50,0.147,0.133,0.209,0.201,0.211,0.120,0.077,southeast,1.9,Yes
2023/05/29,13:00,0.147,0.132,0.209,0.200,0.212,0.119,0.077,south-southeast,2.0,Yes
2023/05/29,13:10,0.148,0.133,0.212,0.202,0.208,0.118,0.076,southeast,2.1,Yes
2023/05/29,13:20,0.148,0.133,0.211,0.203,0.207,0.119,0.077,southeast,1.3,Yes
2023/05/29,13:30,0.147,0.133,0.209,0.201,0.211,0.119,0.076,southeast,0.8,Yes
2023/05/29,13:40,0.149,0.134,0.212,0.203,0.212,0.119,0.077,southeast,0.8,Yes
2023/05/29,13:50,0.148,0.135,0.214,0.204,0.210,0.120,0.078,-,CALM,Yes
2023/05/29,14:00,0.148,0.134,0.210,0.203,0.211,0.121,0.077,east-southeast,1.0,Yes
2023/05/29,14:10,0.150,0.135,0.214,0.202,0.212,0.119,0.077,east-southeast,1.3,Yes
2023/05/29,14:20,0.149,0.135,0.211,0.204,0.210,0.121,0.077,southeast,1.0,Yes
2023/05/29,14:30,0.147,0.133,0.211,0.203,0.209,0.121,0.077,east-southeast,0.6,Yes
2023/05/29,14:40,0.149,0.134,0.210,0.202,0.213,0.119,0.077,southeast,0.9,Yes
2023/05/29,14:50,0.148,0.134,0.211,0.204,0.211,0.119,0.077,-,CALM,No
2023/05/29,15:00,0.146,0.133,0.210,0.202,0.209,0.119,0.076,-,CALM,No
2023/05/29,15:10,0.148,0.133,0.210,0.201,0.207,0.118,0.076,south-southeast,0.6,No
2023/05/29,15:20,0.149,0.133,0.210,0.203,0.211,0.119,0.076,-,CALM,No
2023/05/29,15:30,0.147,0.133,0.211,0.203,0.211,0.119,0.076,-,CALM,No
2023/05/29,15:40,0.147,0.131,0.210,0.201,0.210,0.118,0.076,-,CALM,No
2023/05/29,15:50,0.147,0.133,0.210,0.201,0.209,0.119,0.075,-,CALM,No
2023/05/29,16:00,0.147,0.133,0.212,0.202,0.212,0.118,0.076,-,CALM,No
2023/05/29,16:10,0.148,0.132,0.209,0.200,0.210,0.118,0.077,-,CALM,No
2023/05/29,16:20,0.149,0.133,0.210,0.202,0.209,0.119,0.076,-,CALM,Yes
2023/05/29,16:30,0.147,0.132,0.211,0.202,0.212,0.119,0.076,-,CALM,Yes
2023/05/29,16:40,0.148,0.132,0.209,0.200,0.210,0.118,0.076,-,CALM,Yes
2023/05/29,16:50,0.147,0.133,0.211,0.202,0.208,0.118,0.076,-,CALM,Yes
2023/05/29,17:00,0.146,0.133,0.211,0.202,0.211,0.119,0.077,-,CALM,Yes
2023/05/29,17:10,0.148,0.134,0.210,0.201,0.209,0.117,0.076,-,CALM,Yes
2023/05/29,17:20,0.147,0.133,0.212,0.202,0.209,0.119,0.076,-,CALM,Yes
2023/05/29,17:30,0.147,0.132,0.210,0.201,0.212,0.118,0.077,-,CALM,Yes
2023/05/29,17:40,0.148,0.134,0.212,0.203,0.210,0.118,0.076,northeast,1.4,Yes
2023/05/29,17:50,0.146,0.133,0.212,0.202,0.210,0.119,0.077,-,CALM,Yes
2023/05/29,18:00,0.149,0.134,0.210,0.201,0.212,0.118,0.076,-,CALM,Yes
2023/05/29,18:10,0.147,0.133,0.212,0.202,0.209,0.120,0.077,-,CALM,No
2023/05/29,18:20,0.148,0.133,0.210,0.202,0.211,0.119,0.077,-,CALM,No
2023/05/29,18:30,0.149,0.134,0.211,0.201,0.210,0.119,0.077,-,CALM,No
2023/05/29,18:40,0.147,0.133,0.211,0.203,0.209,0.119,0.076,-,CALM,Yes
2023/05/29,18:50,0.148,0.134,0.210,0.203,0.211,0.118,0.077,-,CALM,No
2023/05/29,19:00,0.148,0.133,0.212,0.203,0.210,0.118,0.075,-,CALM,No
2023/05/29,19:10,0.148,0.134,0.210,0.202,0.211,0.119,0.076,-,CALM,No
2023/05/29,19:20,0.148,0.133,0.212,0.202,0.211,0.119,0.077,-,CALM,No
2023/05/29,19:30,0.147,0.133,0.210,0.204,0.210,0.120,0.076,-,CALM,No
2023/05/29,19:40,0.149,0.134,0.211,0.201,0.213,0.118,0.076,-,CALM,No
2023/05/29,19:50,0.147,0.133,0.212,0.203,0.210,0.119,0.076,-,CALM,No
2023/05/29,20:00,0.148,0.134,0.211,0.202,0.210,0.119,0.076,-,CALM,Yes
2023/05/29,20:10,0.149,0.133,0.214,0.203,0.212,0.119,0.076,-,CALM,No
2023/05/29,20:20,0.148,0.135,0.211,0.203,0.210,0.119,0.077,-,CALM,No
2023/05/29,20:30,0.149,0.134,0.213,0.203,0.213,0.119,0.077,-,CALM,Yes
2023/05/29,20:40,0.147,0.135,0.210,0.204,0.210,0.120,0.077,-,CALM,No
2023/05/29,20:50,0.149,0.134,0.214,0.202,0.210,0.119,0.077,-,CALM,No
2023/05/29,21:00,0.149,0.134,0.213,0.203,0.211,0.120,0.077,-,CALM,Yes
2023/05/29,21:10,0.148,0.134,0.212,0.204,0.210,0.120,0.077,-,CALM,Yes
2023/05/29,21:20,0.150,0.134,0.213,0.202,0.212,0.119,0.077,north-northeast,0.6,Yes
2023/05/29,21:30,0.149,0.134,0.211,0.203,0.211,0.121,0.077,-,CALM,Yes
2023/05/29,21:40,0.150,0.134,0.214,0.204,0.211,0.121,0.078,-,CALM,Yes
2023/05/29,21:50,0.150,0.136,0.212,0.205,0.213,0.123,0.080,-,CALM,Yes
2023/05/29,22:00,0.149,0.135,0.215,0.205,0.212,0.122,0.079,north-northwest,0.7,Yes
2023/05/29,22:10,0.150,0.136,0.213,0.204,0.213,0.120,0.079,north-northwest,1.0,Yes
2023/05/29,22:20,0.150,0.136,0.214,0.205,0.212,0.121,0.080,west-northwest,0.9,Yes
2023/05/29,22:30,0.151,0.135,0.213,0.203,0.212,0.120,0.079,northwest,0.7,Yes
2023/05/29,22:40,0.149,0.136,0.213,0.205,0.214,0.122,0.080,north,0.6,Yes
2023/05/29,22:50,0.151,0.138,0.216,0.206,0.212,0.122,0.080,north-northwest,1.2,Yes
2023/05/29,23:00,0.153,0.138,0.215,0.207,0.216,0.124,0.081,north-northwest,1.3,Yes
2023/05/29,23:10,0.151,0.137,0.217,0.206,0.213,0.123,0.081,-,CALM,Yes
2023/05/29,23:20,0.153,0.138,0.216,0.205,0.214,0.122,0.080,-,CALM,No
2023/05/29,23:30,0.150,0.136,0.215,0.207,0.214,0.122,0.079,-,CALM,No
2023/05/29,23:40,0.152,0.137,0.214,0.205,0.213,0.122,0.080,-,CALM,No
2023/05/29,23:50,0.151,0.135,0.214,0.205,0.213,0.122,0.079,-,CALM,No
